This is the latest recevied weather packets stored in our database for station/object KJ4W. If no packets are shown the sender has not sent any weather packets the latest 10 day(s).
| Time | Temp. | Humidity | Pressure | Rain* | Wind** | Luminosity | Snow |
|---|---|---|---|---|---|---|---|
| 1777511635 | 16.11° C | 69% | 1014.7 hPa | 0 mm | - | - | - |
| 1777509834 | 16.67° C | 66% | 1014.4 hPa | 0 mm | - | - | - |
| 1777508936 | 17.22° C | 66% | 1014 hPa | 0 mm | - | - | - |
| 1777508035 | 17.22° C | 64% | 1014 hPa | 0 mm | - | - | - |
| 1777507136 | 17.78° C | 65% | 1013.8 hPa | 0 mm | - | - | - |
| 1777506234 | 18.33° C | 61% | 1013.6 hPa | 0 mm | - | - | - |
| 1777505336 | 18.89° C | 62% | 1013.6 hPa | 0 mm | - | - | - |
| 1777504436 | 19.44° C | 61% | 1013.5 hPa | 0 mm | - | - | - |
| 1777503535 | 20° C | 59% | 1013.5 hPa | 0 mm | - | - | - |
| 1777502635 | 20.56° C | 59% | 1013.5 hPa | 0 mm | - | - | - |
| 1777501734 | 20.56° C | 58% | 1013.5 hPa | 0 mm | - | - | - |
| 1777500836 | 21.11° C | 59% | 1013.5 hPa | 0 mm | - | - | - |
| 1777499935 | 20.56° C | 59% | 1013.6 hPa | 0 mm | - | - | - |
| 1777499035 | 21.11° C | 59% | 1013.5 hPa | 0 mm | - | - | - |
| 1777498134 | 21.11° C | 62% | 1013.5 hPa | 0 mm | - | - | - |
| 1777497236 | 21.11° C | 60% | 1013.5 hPa | 0 mm | - | - | - |
| 1777496336 | 21.11° C | 63% | 1013.7 hPa | 0 mm | - | - | - |
| 1777495435 | 21.67° C | 60% | 1013.9 hPa | 0 mm | - | - | - |
| 1777494540 | 21.11° C | 65% | 1014 hPa | 0 mm | - | - | - |
| 1777493634 | 20.56° C | 63% | 1014 hPa | 0 mm | - | - | - |
| 1777492735 | 21.11° C | 64% | 1014.2 hPa | 0 mm | - | - | - |
| 1777491835 | 20.56° C | 64% | 1014.3 hPa | 0 mm | - | - | - |
| 1777490934 | 20.56° C | 66% | 1014.4 hPa | 0 mm | - | - | - |
| 1777490035 | 20° C | 67% | 1014.5 hPa | 0 mm | - | - | - |
| 1777489134 | 20° C | 71% | 1014.6 hPa | 0 mm | - | - | - |
* Rain latest hour (hover to see other rain measurements)
** Current wind speed in m/s (hover to see current wind gust speed)